Location: Nirvana
(45.0297°N, 77.2628°W)
Time: 18:30:19
(UTC-05:00)

Envisat - Pass Details

Date: 29 October 2019
Orbit: 764 x 766 km, 98.1° (Epoch: 17 November)

Event Time Altitude Azimuth Distance (km) Brightness Sun altitude
Rises 06:40:22 0° 32° (NNE) 3,240 6.6 -11.6°
Reaches altitude 10° 06:43:56 10° 58° (ENE) 2,307 6.3 -11.0°
Maximum altitude 06:46:26 14° 88° (E) 2,056 6.6 -10.6°
Drops below altitude 10° 06:48:57 10° 118° (ESE) 2,298 6.8 -10.1°
Sets 06:52:28 0° 144° (SE) 3,217 7.0 -9.5°
